CW4674 Karlstad SE current weather conditions

sailwx.info

Wind from 020 at 3 knots gusting 6

Air temperature 1.7° C
Dewpoint 0.2° C

Last reported at 2018-Dec-10 21:00 UTC.
Time now 2018-Dec-10 21:36 UTC

Location: N 59°24' E 013°35'.
View on Google Maps.

See reports from other nearby stations

  
Tides and Currents Weather Stations Pressure Air Temp Water Temp Dewpoint Dewpoint Depression Visibility Wind Speed Wind Dir Waves Ship Positions
date/time (UTC)wind fromknots sea level pressurealtimeterstation pressurevisibilityair tempwater tempwave heightnotes
2018-Dec-10 21:00 020 3 gusting 6 1.7
2018-Dec-10 20:18 020 0 gusting 6 1.7
2018-Dec-10 20:09 022 3 gusting 7 1.7
2018-Dec-10 20:00 025 1.7
2018-Dec-10 19:51 017 3 gusting 7 1.7
2018-Dec-10 19:42 018 1.1
2018-Dec-10 19:27 019 3 gusting 6 1.1
2018-Dec-10 19:18 026 1 gusting 8 1.1
2018-Dec-10 19:09 014 1 gusting 6 1.1
2018-Dec-10 18:51 022 3 gusting 7 1.7
2018-Dec-10 18:42 019 1 gusting 9 1.7
2018-Dec-10 18:26 024 2 gusting 9 1.7
2018-Dec-10 17:41 029 1 gusting 10 1.7
2018-Dec-10 17:26 026 6 gusting 9 1.7
2018-Dec-10 17:08 021 2 gusting 8 1.1
2018-Dec-10 16:50 022 3 gusting 8 1.1
2018-Dec-10 16:41 015 1.1
2018-Dec-10 15:17 001 1 gusting 6 1.1
2018-Dec-10 15:08 012 1 gusting 5 1.1
2018-Dec-10 14:59 007 3 gusting 6 1.1
2018-Dec-10 14:41 009 2 gusting 5 1.1
2018-Dec-10 14:08 359 1 gusting 4 1.1
2018-Dec-10 13:59 017 0 gusting 6 1.1
2018-Dec-10 13:50 026 1 gusting 6 1.1
2018-Dec-10 13:26 004 0 gusting 5 1.1
2018-Dec-10 13:17 001 0 gusting 6 1.1
2018-Dec-10 13:08 335 1 gusting 4 1.7
2018-Dec-10 12:59 346 1 gusting 6 1.7
2018-Dec-10 12:50 338 4 gusting 6 1.7
2018-Dec-10 12:41 352 0 gusting 4 1.7
2018-Dec-10 11:59 005 3 gusting 6 1.7
2018-Dec-10 11:26 019 1 gusting 6 1.7
2018-Dec-10 11:08 087 2 gusting 3 1.7
2018-Dec-10 10:17 277 0 gusting 6 1.1
2018-Dec-10 10:08 333 1.1
2018-Dec-10 09:50 295 6 gusting 6 1.1
2018-Dec-10 09:26 022 1.1
2018-Dec-10 09:17 022 1.1
2018-Dec-10 09:08 022 1.1
2018-Dec-10 08:50 019 0 gusting 6 1.1
2018-Dec-10 08:17 023 2 gusting 3 0.6
2018-Dec-10 07:59 023 0 gusting 6 0.6
2018-Dec-10 07:26 017 1 gusting 7 0.6
2018-Dec-10 06:50 020 1 gusting 6 -0.0
2018-Dec-10 06:25 023 -0.0
2018-Dec-10 06:16 020 -0.0
2018-Dec-10 06:07 014 0 gusting 6 -0.0
2018-Dec-10 05:58 022 1 gusting 6 -0.0
2018-Dec-10 05:49 018 0 gusting 6 -0.0
2018-Dec-10 05:25 022 -0.0
2018-Dec-10 05:07 018 1 gusting 7 -0.0
2018-Dec-10 04:49 023 -0.0
2018-Dec-10 04:16 022 -0.0
2018-Dec-10 04:07 022 0 gusting 5 -0.0
2018-Dec-10 02:58 022 -0.0
2018-Dec-10 02:49 022 1 gusting 5 -0.6
2018-Dec-10 02:40 009 -0.6
2018-Dec-10 02:25 022 -0.6
2018-Dec-10 02:16 023 -0.6
2018-Dec-10 01:49 023 -0.6
2018-Dec-10 01:40 020 -0.6
2018-Dec-10 01:21 023 8 gusting 8 -0.6
2018-Dec-10 00:58 016 -0.6
2018-Dec-10 00:40 022 1 gusting 3 -0.6
2018-Dec-10 00:25 022 2 gusting 3 -0.6
2018-Dec-10 00:07 014 -0.6
2018-Dec-09 23:40 020 1 gusting 8 -0.6
2018-Dec-09 23:16 020 4 gusting 6 -0.6
2018-Dec-09 22:58 017 -0.6
2018-Dec-09 22:49 016 -0.6
2018-Dec-09 22:40 019 -0.6
2018-Dec-09 22:25 019 -0.6
2018-Dec-09 22:16 015 -0.6
2018-Dec-09 21:25 022 -1.1
2018-Dec-09 21:16 019 -1.1
2018-Dec-09 21:07 019 2 gusting 6 -1.1
2018-Dec-09 20:16 356 -1.1
2018-Dec-09 20:07 008 -1.1
2018-Dec-09 19:49 023 0 gusting 2 -1.1
2018-Dec-09 19:40 012 -1.1
2018-Dec-09 19:16 022 -1.1
2018-Dec-09 19:07 337 -1.1
2018-Dec-09 18:58 016 -1.1
2018-Dec-09 18:49 023 -1.1
2018-Dec-09 18:24 007 -1.1
2018-Dec-09 18:15 022 -1.1
2018-Dec-09 18:06 020 2 gusting 6 -0.6
2018-Dec-09 17:57 022 0 gusting 5 -0.6
2018-Dec-09 17:48 020 1 gusting 6 -0.6
2018-Dec-09 17:39 022 -0.6
2018-Dec-09 17:15 015 6 gusting 6 -0.6
2018-Dec-09 16:39 022 -0.6
2018-Dec-09 15:48 023 0 gusting 3 -0.0
2018-Dec-09 15:39 011 0 gusting 6 -0.0
2018-Dec-09 15:24 022 -0.0
2018-Dec-09 15:15 344 -0.0
2018-Dec-09 15:06 002 -0.0
2018-Dec-09 14:24 012 0.6
2018-Dec-09 13:24 012 0 gusting 6 0.6
2018-Dec-09 13:06 020 0.6
2018-Dec-09 12:57 281 2 gusting 3 0.6
2018-Dec-09 12:39 297 1.1
2018-Dec-09 12:24 291 1.1
2018-Dec-09 12:06 323 1.1
2018-Dec-09 11:39 218 1.1
2018-Dec-09 11:24 257 1.1
2018-Dec-09 11:15 357 1.1
2018-Dec-09 11:06 251 1 gusting 3 1.1
2018-Dec-09 10:48 263 1 gusting 4 1.1
2018-Dec-09 10:06 336 1.1
2018-Dec-09 09:57 307 1 gusting 4 1.1
2018-Dec-09 09:48 305 1.1
2018-Dec-09 09:39 235 1.7
2018-Dec-09 09:24 283 0 gusting 3 1.7
2018-Dec-09 09:15 240 1.7
2018-Dec-09 09:06 264 1.7
2018-Dec-09 08:48 260 1.7
2018-Dec-09 08:24 335 1 gusting 1 1.7
2018-Dec-09 08:15 272 1 gusting 2 1.7
2018-Dec-09 08:06 306 1.7
2018-Dec-09 07:57 350 1 gusting 1 1.7
2018-Dec-09 07:39 232 1.7
2018-Dec-09 07:06 223 3 gusting 11 1.7
2018-Dec-09 06:57 348 1.7
2018-Dec-09 06:48 322 1.7
2018-Dec-09 06:23 296 1.7
2018-Dec-09 06:14 287 1.7
2018-Dec-09 05:56 271 1.7
2018-Dec-09 05:47 254 2 gusting 4 1.7
2018-Dec-09 05:38 265 1.7
2018-Dec-09 05:23 021 1.7
2018-Dec-09 05:14 023 1.7
2018-Dec-09 05:05 008 1.7
2018-Dec-09 04:56 027 2.2
2018-Dec-09 04:47 019 2.2
2018-Dec-09 04:38 009 2.2
2018-Dec-09 04:23 040 1 gusting 1 2.2
2018-Dec-09 04:14 007 1 gusting 12 2.2
2018-Dec-09 04:05 021 1 gusting 2 2.2
2018-Dec-09 03:47 034 2 gusting 3 2.8
2018-Dec-09 03:38 019 2.8
2018-Dec-09 03:14 033 3.3
2018-Dec-09 03:05 045 1 gusting 1 3.3
2018-Dec-09 02:47 036 3.3
2018-Dec-09 02:23 3.3
2018-Dec-09 02:14 3.3
2018-Dec-09 02:05 3.3
2018-Dec-09 01:47 3.9
2018-Dec-09 01:38 3.9
2018-Dec-09 01:21 3.9
2018-Dec-09 00:38 168 3.9
2018-Dec-09 00:14 3.9
2018-Dec-09 00:05 203 3.9
2018-Dec-08 23:56 210 3.9
2018-Dec-08 23:47 225 3.9
2018-Dec-08 23:38 225 3.9
2018-Dec-08 23:23 225 3.9
2018-Dec-08 23:05 270 3.9
2018-Dec-08 22:47 258 3.9
2018-Dec-08 22:38 3.9
2018-Dec-08 21:56 225 3.9
2018-Dec-08 21:47 227 3.9
2018-Dec-08 21:23 3.9
2018-Dec-08 21:14 206 3.9